RH
10 9 9 9 8 8 8 8 8 8 9 12 14 15 16 17 17 17 18 17 17 16 15 13 12 11 11 11 11 11 11 10 10 12 14 12 11 13 12 11 10 9 10 9 11 13 13 13 14 13 13 13 12 12 12 13 12 12 12 12 12 14 15 13 14 15 13 13 16 16 15 14 13 19 23 22 20 24 39 45 43 50 55 57 59 59 57 57
11 10 9 8 8 7 8 7 7 7 7 9 11 13 14 16 16 16 17 18 17 17 16 15 14 13 11 11 11 12 12 11 12 12 12 13 13 12 12 12 11 10 10 9 11 14 13 13 13 13 13 13 14 13 12 13 13 12 13 12 11 13 15 15 16 16 15 16 18 17 14 14 15 23 29 26 24 29 45 52 47 55 61 59 59 60 58 55
10 10 9 8 8 7 7 7 7 8 7 8 8 10 12 14 15 15 15 17 17 17 16 16 16 15 14 13 12 13 12 13 16 16 16 16 14 13 12 12 11 11 10 9 12 14 13 13 14 14 15 15 15 14 12 13 14 13 13 14 12 11 14 17 18 17 18 18 18 17 13 14 17 25 32 32 32 33 47 57 54 59 61 60 61 60 56 52
10 9 9 9 8 8 7 7 7 7 7 8 7 8 10 12 13 15 15 15 16 17 16 16 16 16 16 15 14 14 14 19 22 21 20 17 15 14 13 12 11 11 10 10 13 14 14 18 20 19 18 16 14 13 12 12 15 15 13 13 13 12 14 17 20 19 19 18 17 17 12 12 15 20 27 33 41 43 49 56 56 58 60 60 59 56 52 50
9 9 9 9 9 9 8 7 7 7 7 7 7 7 7 9 12 14 14 14 15 16 16 16 16 17 17 18 18 16 18 27 30 27 24 19 17 16 13 12 12 12 11 12 14 14 16 21 22 20 19 16 14 13 12 12 14 16 14 12 12 13 16 19 21 21 18 17 16 15 13 13 16 18 23 30 44 52 54 56 57 54 55 60 57 51 49 49
9 8 8 9 9 9 8 8 7 8 8 8 8 7 7 7 9 11 14 14 14 15 15 16 17 18 19 20 20 20 25 29 30 30 27 22 21 19 15 13 13 12 12 14 15 15 17 20 20 19 18 17 14 13 13 14 14 17 15 12 11 13 16 19 23 22 16 15 15 15 13 13 14 16 21 28 39 50 55 57 58 53 51 60 59 51 49 51
8 8 8 8 8 8 8 8 8 8 8 8 8 7 7 6 7 9 11 13 14 14 14 16 16 18 20 21 22 26 30 28 26 29 27 23 22 20 17 15 14 14 14 17 16 15 17 18 18 17 17 16 14 13 15 16 16 17 15 13 13 13 14 15 20 19 14 14 14 14 13 12 12 14 19 26 33 42 53 56 56 56 57 60 58 51 48 54
9 8 8 8 8 8 8 8 9 9 8 8 8 8 8 7 7 7 9 11 14 14 14 15 17 18 20 22 25 30 33 30 28 29 27 24 23 21 18 16 15 16 17 18 15 15 18 17 17 16 15 15 14 12 14 16 17 17 15 14 15 15 15 15 15 16 14 14 13 12 13 12 11 14 16 21 31 38 49 57 57 58 59 59 55 49 50 61
10 9 9 9 8 8 8 8 8 9 9 9 9 9 9 8 8 7 8 9 11 13 14 14 16 18 20 22 27 32 35 34 31 29 26 23 24 24 20 16 15 16 19 20 16 16 17 16 16 15 15 16 15 13 14 15 16 17 16 15 15 15 16 16 15 15 15 13 12 11 12 11 11 14 15 17 29 35 40 49 54 54 55 56 55 52 57 68
11 10 10 9 9 9 9 9 9 9 9 9 9 10 10 10 9 8 8 8 9 11 13 14 15 17 19 23 28 32 33 35 34 32 28 23 23 26 23 19 16 17 21 20 17 16 17 15 14 14 14 15 16 16 15 14 15 17 17 16 16 15 16 15 15 15 15 13 12 11 11 12 11 13 14 14 22 30 34 38 43 47 49 53 57 57 60 66
11 12 11 11 10 10 10 10 9 9 9 9 10 10 11 11 11 10 9 9 9 9 12 13 14 15 16 22 28 27 28 31 34 34 30 25 24 25 24 23 20 18 21 20 18 17 17 16 15 15 15 14 15 16 16 15 15 16 17 16 16 16 16 14 15 16 15 13 12 12 11 13 12 13 13 12 15 22 29 31 32 38 44 50 60 62 57 57
12 12 12 12 11 11 10 11 10 10 10 10 10 10 11 12 12 12 10 10 9 9 10 10 13 13 15 23 25 23 23 27 30 32 31 28 25 25 23 24 22 19 19 20 20 19 17 17 16 16 17 16 16 15 16 17 16 16 16 17 17 17 16 14 14 16 15 13 12 12 12 12 13 13 12 11 16 21 24 25 26 31 39 50 60 62 58 55
11 11 12 12 12 11 11 11 11 11 10 10 10 10 11 11 13 14 13 12 11 10 9 10 11 11 17 25 20 19 22 24 26 28 30 29 25 24 23 23 24 21 19 20 21 20 18 17 16 16 17 19 19 16 16 17 16 17 17 17 18 17 15 14 14 15 15 13 13 12 12 13 12 13 12 14 21 25 22 22 23 27 34 46 53 55 59 58
11 11 11 11 11 11 11 11 11 11 10 10 10 9 10 11 12 14 15 14 14 14 12 12 12 12 22 24 16 17 22 22 23 24 26 27 24 24 24 23 24 22 21 22 22 22 20 17 16 16 16 19 19 18 18 17 16 16 17 17 17 16 15 13 13 14 14 13 13 13 13 13 12 12 12 15 22 24 23 21 22 27 34 45 55 60 62 57
12 12 11 11 11 10 10 10 10 10 10 10 10 9 10 10 11 13 14 15 15 15 15 15 15 17 24 22 16 19 21 20 22 22 24 26 25 25 26 24 22 24 24 23 22 23 21 18 16 15 16 17 17 19 22 21 16 16 16 16 16 15 14 13 13 13 14 13 13 13 14 12 12 12 13 15 20 21 21 23 24 29 37 47 57 64 63 57
12 12 12 12 12 12 12 11 11 9 9 9 10 10 9 9 10 11 13 15 15 16 17 18 22 24 25 25 23 23 23 21 22 22 25 27 28 30 30 27 24 24 24 22 21 21 20 19 17 15 15 17 17 20 22 22 18 15 16 16 15 14 12 12 12 14 14 12 13 13 12 12 12 13 15 17 20 20 20 24 26 30 39 47 54 61 62 59
12 11 12 12 12 12 13 13 12 12 10 9 9 9 10 10 11 11 12 14 15 17 18 20 26 27 26 25 24 25 28 27 26 24 25 27 29 32 33 30 27 25 23 21 19 20 20 18 16 16 15 17 20 20 21 22 19 16 15 15 13 13 12 10 12 16 17 14 15 14 12 12 13 16 20 21 22 24 22 24 25 29 39 46 49 58 63 59
12 12 12 11 11 11 11 12 12 13 13 12 10 10 9 10 10 11 14 16 18 21 22 24 27 26 29 30 26 28 31 32 31 28 27 27 28 32 33 29 28 26 24 22 19 19 19 17 16 16 15 16 19 21 20 19 18 16 16 16 13 11 11 10 12 16 18 17 16 17 14 12 13 18 24 23 22 27 29 25 23 28 39 46 48 56 62 56
12 12 12 12 12 11 11 11 11 12 12 12 12 10 9 11 16 21 24 26 28 28 27 32 33 27 30 33 30 30 28 30 32 29 31 32 30 32 31 28 27 26 24 23 21 19 18 18 17 18 17 15 18 21 19 15 17 21 22 22 17 12 11 12 13 14 16 17 17 19 16 12 14 18 24 25 25 32 33 27 24 29 37 44 45 51 58 53
12 12 12 12 11 12 11 11 11 11 11 12 13 12 14 18 25 33 36 34 33 29 24 29 30 25 27 29 29 30 28 30 32 29 32 34 31 31 29 26 25 25 23 22 20 18 18 18 17 16 17 17 18 19 18 16 21 26 28 29 24 17 15 15 15 14 16 18 18 20 18 14 13 16 23 29 29 32 34 30 26 27 32 38 43 48 52 49
12 13 12 12 12 12 12 12 11 11 11 12 12 14 19 21 24 28 29 28 26 24 21 21 22 20 22 25 31 36 33 31 30 29 32 33 30 30 27 24 24 24 22 21 21 19 18 18 17 16 18 20 21 20 18 18 22 26 30 31 26 22 18 17 17 15 18 20 20 21 18 14 14 15 19 26 29 29 30 30 26 25 26 33 45 51 48 47
12 11 11 11 11 11 11 12 11 11 11 11 11 13 16 18 20 19 18 18 19 21 21 20 19 18 19 22 28 34 33 31 30 29 31 32 30 27 24 22 22 22 19 20 24 23 19 17 16 18 21 22 22 22 19 19 21 23 29 31 27 23 19 18 18 17 19 21 21 23 21 15 14 16 17 22 28 28 26 27 25 25 24 27 44 52 46 45
12 11 11 10 10 10 10 11 11 11 11 11 11 12 14 17 18 16 15 16 16 18 20 21 21 20 22 25 25 28 30 31 30 29 30 30 28 24 22 21 19 20 18 19 26 28 23 19 17 19 24 24 22 25 24 22 22 21 26 28 25 24 20 18 20 19 21 24 24 25 27 24 18 18 19 18 23 28 25 24 24 25 25 28 42 51 48 46
14 14 13 13 11 11 10 9 13 15 14 14 12 12 15 16 16 17 17 17 16 18 18 20 24 25 25 26 26 27 29 29 29 33 32 29 27 24 22 20 17 19 19 19 24 27 26 25 22 20 23 24 24 27 27 25 24 21 24 25 24 25 23 20 23 24 24 26 26 25 28 28 25 24 22 16 20 28 29 27 26 26 29 34 43 49 50 52
16 15 14 14 13 13 11 12 19 21 17 17 15 15 18 16 16 18 18 20 20 20 22 22 24 27 26 25 27 26 28 27 28 37 37 28 27 24 21 21 19 18 19 20 23 25 28 29 28 27 26 25 27 29 27 24 23 21 21 21 21 25 25 22 24 27 28 28 28 28 27 26 25 27 25 20 22 27 29 30 29 28 33 41 47 51 54 56
16 15 15 15 14 14 13 16 25 22 15 17 17 18 20 16 17 19 21 29 28 24 27 29 27 29 27 25 25 25 28 26 25 36 39 29 27 25 22 23 21 18 18 20 23 24 26 27 28 32 31 27 28 28 25 22 20 19 19 17 17 21 26 25 26 30 31 31 33 33 30 26 23 22 23 23 22 24 28 31 32 31 35 42 47 53 56 57
17 17 17 16 15 15 15 17 23 19 16 22 23 19 17 15 17 21 27 34 30 24 28 31 31 34 34 30 28 25 28 28 23 31 36 31 28 25 23 25 22 20 19 22 26 26 24 24 26 29 29 28 27 24 21 20 18 17 18 19 16 16 23 28 30 33 34 33 35 34 30 27 24 22 27 28 24 27 32 34 33 32 37 46 52 55 54 56
19 20 18 18 17 17 17 17 19 18 19 26 26 20 16 16 18 24 35 40 29 24 31 34 34 36 36 35 32 26 28 32 27 27 32 31 29 26 23 24 22 21 21 23 28 28 23 23 26 28 27 27 25 21 19 20 19 16 19 25 23 18 19 27 32 35 36 35 36 36 33 29 25 24 30 32 27 30 34 37 37 32 39 53 57 56 55 56
19 18 17 18 16 18 20 19 19 20 20 23 25 22 18 18 20 27 42 47 32 25 33 38 38 37 34 34 33 27 28 34 29 27 33 31 28 27 23 22 22 22 23 23 27 31 29 24 24 26 26 23 21 19 17 19 19 17 19 26 31 25 18 22 31 33 37 37 36 38 36 34 30 27 30 33 32 33 35 39 40 33 39 52 53 52 57 57
17 16 16 15 14 19 22 19 20 23 22 24 27 26 21 21 27 36 44 42 29 25 30 36 40 39 34 33 32 27 28 33 30 32 37 32 27 27 24 23 23 23 24 23 24 29 31 27 23 23 23 20 19 20 19 19 19 18 19 24 31 32 22 19 23 28 35 36 34 34 37 40 37 32 31 33 34 36 37 39 38 36 41 48 49 51 58 56
14 14 14 13 13 15 17 17 23 25 25 29 30 26 22 24 32 43 44 32 24 25 29 31 35 37 34 33 32 28 29 33 33 36 40 35 29 27 25 25 24 24 26 23 22 24 24 25 25 22 21 19 20 23 26 24 19 17 20 24 31 34 28 23 23 28 35 36 31 30 37 41 39 35 34 34 36 36 39 40 38 43 49 46 45 50 56 53
11 11 11 12 12 12 12 14 20 24 23 25 27 26 26 30 35 39 36 29 27 27 29 30 32 34 36 36 35 31 31 33 35 39 41 37 33 27 24 25 24 24 27 26 23 22 21 22 24 24 21 19 21 25 28 26 20 18 19 23 32 37 35 34 33 33 33 30 28 32 39 41 38 37 37 40 43 39 40 43 45 51 55 50 47 49 52 48
8 7 7 8 9 8 9 8 12 17 17 18 23 26 31 36 36 34 31 29 31 31 33 36 37 38 39 39 39 36 33 33 35 40 40 38 36 29 23 23 24 25 26 28 26 24 22 21 22 24 22 20 21 24 27 25 21 19 19 22 31 39 40 39 37 36 34 28 29 34 37 40 41 39 37 40 46 44 44 47 49 51 53 54 54 53 55 54
5 5 7 7 7 8 7 7 12 15 13 14 20 25 35 40 36 33 30 27 27 29 33 37 39 42 43 41 43 41 37 35 37 40 41 38 36 33 28 23 23 24 26 28 28 26 25 24 23 23 21 21 20 20 26 28 23 18 17 23 31 38 40 40 37 38 38 34 35 38 37 41 48 49 43 40 43 45 47 47 46 46 47 49 50 51 58 61
5 8 11 11 11 11 9 12 17 16 12 13 17 22 33 37 32 32 31 27 27 27 29 34 36 40 44 43 44 44 42 40 40 40 40 39 35 33 31 27 24 23 25 28 29 28 27 27 27 24 22 22 20 18 22 29 32 24 16 21 32 37 38 39 39 41 41 39 39 42 42 45 52 54 50 45 43 42 43 44 45 44 42 42 46 50 56 58
8 17 19 18 20 19 15 18 19 17 14 14 17 20 23 24 24 27 29 29 30 28 30 34 35 36 40 40 41 44 45 44 45 45 44 41 37 34 31 30 27 24 24 26 28 30 29 31 33 29 24 23 22 21 19 24 35 35 24 22 30 34 35 40 41 39 40 40 38 41 46 49 50 51 48 45 44 43 42 45 46 46 46 46 47 52 57 60
10 18 20 24 29 24 18 19 20 19 17 14 21 23 17 15 17 19 25 29 31 31 33 36 37 36 37 36 36 40 45 46 47 48 48 45 42 38 33 32 31 27 25 25 28 32 33 37 41 37 31 27 23 22 21 20 29 38 34 29 30 33 35 39 43 41 41 41 37 39 48 55 52 48 46 42 40 43 47 50 48 45 48 52 53 59 66 66
9 14 21 28 31 27 21 20 20 19 15 15 23 24 16 14 13 14 21 27 32 37 37 36 38 38 38 36 35 39 44 47 49 50 50 51 49 45 40 39 38 32 27 27 30 36 38 39 42 40 38 35 27 24 24 23 25 34 40 37 35 40 41 40 43 45 46 45 40 35 38 49 51 46 47 45 41 46 50 52 51 47 48 55 58 62 67 68
11 23 35 37 37 35 27 23 22 19 17 19 23 20 14 13 13 14 21 27 34 39 39 38 39 38 38 37 36 38 41 46 51 53 55 56 57 55 48 45 46 41 34 31 31 36 40 43 44 44 42 39 34 30 28 26 26 31 37 37 37 41 43 43 44 43 42 45 44 34 32 48 55 49 49 50 50 52 53 53 54 53 55 58 58 59 64 69
22 35 46 47 45 38 25 23 23 19 20 24 21 17 14 13 12 12 17 25 35 41 40 40 41 39 37 35 34 37 42 48 51 54 56 57 57 60 55 47 49 49 43 37 34 34 38 43 48 47 44 41 39 35 31 30 31 31 32 34 35 38 40 44 45 41 38 41 43 37 42 60 65 54 51 53 54 55 58 65 67 63 62 61 60 66 73 75
31 41 50 52 46 33 21 23 26 23 27 28 21 16 14 15 17 16 16 21 30 38 40 40 41 40 39 37 34 36 41 46 49 51 57 59 59 62 59 53 53 54 50 46 42 40 39 40 45 48 46 44 42 40 37 33 32 32 32 31 32 37 41 44 43 41 38 38 41 40 50 65 65 59 56 53 53 58 64 72 74 71 71 69 67 69 72 73
38 47 54 50 40 28 23 29 35 37 40 36 31 29 23 18 19 19 20 25 28 33 38 39 40 38 37 39 39 38 40 43 47 51 57 62 64 62 57 52 52 55 54 51 48 48 46 44 46 46 45 44 42 42 42 37 34 34 34 34 33 34 38 39 44 48 44 39 40 39 46 59 60 59 60 56 54 60 64 67 70 70 73 74 70 67 67 71
44 48 48 46 40 33 32 39 43 43 44 41 42 46 41 31 24 19 22 29 31 31 35 40 40 37 36 38 39 41 40 41 46 50 54 59 63 60 56 52 52 53 53 54 53 51 49 50 51 49 48 49 45 43 42 40 38 37 35 37 40 38 37 36 41 50 48 44 43 41 47 59 61 59 59 57 57 59 61 64 66 66 67 69 69 68 69 72
41 43 46 50 45 37 42 53 53 50 53 52 50 51 49 43 36 28 25 29 33 35 36 38 38 36 35 35 37 41 43 42 44 48 53 57 58 59 57 55 54 54 53 55 55 52 51 52 51 51 56 58 53 51 51 48 45 42 38 38 41 42 42 41 41 44 44 43 43 45 53 62 62 61 59 56 59 62 61 63 65 65 66 68 68 68 67 68
39 42 45 50 46 39 43 52 52 52 58 58 53 56 57 51 46 42 36 34 36 37 38 39 37 37 38 34 32 36 42 44 43 46 52 55 56 58 58 55 56 57 55 53 52 52 54 55 52 52 57 62 61 60 60 57 50 46 43 41 42 41 41 45 47 47 45 43 44 48 55 62 64 65 64 61 63 65 63 63 66 66 68 68 67 67 66 65
38 38 38 38 39 39 43 50 49 47 52 56 53 54 59 58 56 53 46 43 41 39 42 45 43 42 42 38 34 32 35 41 43 44 50 56 57 57 57 56 58 60 58 54 53 54 55 56 55 53 56 60 64 63 61 58 54 51 48 46 46 46 42 44 49 51 50 49 54 57 57 62 67 67 70 71 69 68 66 67 68 69 70 70 67 66 66 65
34 36 36 33 40 50 52 56 59 52 51 57 57 55 59 62 62 60 54 49 45 41 44 49 48 47 45 42 42 39 35 37 40 41 45 52 55 54 56 58 58 59 59 55 53 54 55 54 53 53 54 56 59 61 60 59 57 56 55 51 51 52 50 47 46 47 48 52 60 64 63 68 72 70 72 75 74 72 71 70 74 75 73 71 67 64 64 65
31 37 38 36 52 65 61 59 68 67 59 59 59 57 59 62 62 62 60 53 47 44 45 47 47 48 47 44 46 45 40 39 39 39 41 47 51 51 54 60 61 56 54 53 50 49 51 52 51 52 54 53 55 56 58 59 58 58 59 57 56 56 58 58 53 49 50 53 59 67 70 74 77 74 73 73 73 74 74 73 78 80 73 69 68 67 66 66
29 37 44 46 54 62 62 62 69 73 65 58 58 60 63 65 62 59 59 59 56 51 50 50 46 44 44 44 47 49 49 46 44 46 49 50 53 54 55 64 70 61 53 54 53 48 49 53 53 52 51 52 54 55 56 59 60 61 62 62 62 62 64 68 66 60 59 59 62 69 73 75 78 77 75 74 73 76 78 78 81 84 80 75 71 69 69 67
24 31 47 56 52 51 59 63 67 72 65 55 57 64 68 71 65 58 57 64 68 61 57 59 56 48 46 47 50 57 59 54 50 52 53 50 52 56 56 63 72 66 56 56 57 53 52 55 55 53 52 52 53 53 53 56 59 61 63 63 65 67 69 71 74 75 74 69 68 71 71 72 77 77 72 70 71 72 75 77 79 80 81 80 74 68 66 65
24 31 44 55 47 42 53 61 66 73 67 55 57 62 64 69 69 62 58 61 67 64 58 61 62 60 58 55 55 57 57 52 48 48 48 45 48 54 56 58 61 61 59 62 65 62 57 55 55 56 56 54 52 52 54 54 55 59 63 65 67 71 72 71 72 79 82 76 72 72 70 70 71 67 62 64 66 66 69 75 79 76 75 76 74 68 64 61
29 36 42 50 44 38 47 55 62 72 72 64 61 58 58 63 65 63 60 57 59 60 57 57 61 64 64 60 57 55 52 49 46 43 42 41 42 48 52 51 50 53 58 66 74 75 67 60 59 58 55 54 54 56 56 56 57 60 63 65 68 72 73 70 70 75 79 77 74 72 71 69 62 56 56 61 63 62 63 69 76 78 74 72 69 66 64 63